Location: Ajisawe
(8.4333°N, 4.3833°E)
Time: 21:29:44
(UTC+00:00)

Vanguard 2 Rocket - Pass Details

Date: 20 April 2021
Orbit: 554 x 3326 km, 32.9° (Epoch: 16 May)

Event Time Altitude Azimuth Distance (km) Brightness Sun altitude
Rises 14:32:49 0° 285° (WNW) 6,769 12.0 47.7°
Reaches altitude 10° 14:38:05 10° 295° (WNW) 6,013 12.0 46.4°
Maximum altitude 14:54:47 32° 352° (N) 4,654 11.0 42.3°
Drops below altitude 10° 15:10:29 10° 50° (NE) 5,642 10.7 38.5°
Sets 15:15:14 0° 60° (ENE) 6,318 10.8 37.3°
